Kushiro Airport
RJCK : now visible

Airfield :











YOU CAN JOIN US ON...

 
LOGIN :

Register | Disclaimer

   EN    FR    IT 

 









Legend :    VFR   Marginal VFR   IFR   Intensive IFR   Very Intensive IFR
Visi :
Ceiling :
>= 8 km
>= 3000ft
5 to 8 km
1000 to 3000 ft
1500m to 5 km
500 to 1000 ft
800 to 1500m
200 to 500 ft
< 800m
< 200 ft
Symbols :   Thunderstorms  Fog  Heavy snow  Heavy precipitations  Wind > 20 kt







- Airport Elevation : 327 ft
- IATA code : KUH


RJCK - Kushiro

METAR N/A
TAF TAF RJCK
Valid from the 18 at 12:00 until the 19 at 18:00 UTC


181111Z 1812/1918 18005KT 7000 FEW001 BKN003
BECMG 1812/1814 01003KT 0700 FG VV001
BECMG 1900/1903 17009KT 9999 NSW FEW006 BKN010
BECMG 1906/1909 02004KT 3000 -SHRA BR FEW005 BKN008
TEMPO 1909/1918 1500 -SHRA BR FEW001 BKN003
No reported NOTAMs for that airfield.



MET'MAP, your aeronautical weather chart ! - Copyright ORBIFLY December 2007 - Disclaimer

ORBIFLY MET'MAP TEAM :

Programming & Development : Alexandra Zaïnal
Concept & Development : Baudouin d'Aumeries
Co-Development & Prog : Marc-Olivier Méhu
Technical & hardware support : Manuel Goepfert

Contact : metmap@orbifly.com




SOURCES & CREDITS :

   NOAA       Earth
Advisory